Location: Bagnara
(41.0500°N, 14.7833°E)
Time: 21:30:25
(UTC+00:00)

ATLAS 5 CENTAUR R/B - Pass Details

Date: 25 October 2021
Orbit: 497 x 1159 km, 63.4° (Epoch: 25 November)

Event Time Altitude Azimuth Distance (km) Brightness Sun altitude
Rises 17:30:56 0° 279° (W) 2,663 6.5 -16.7°
Reaches altitude 10° 17:35:26 10° 327° (NNW) 1,900 4.5 -17.6°
Maximum altitude 17:35:47 10° 332° (NNW) 1,907 4.4 -17.6°
Drops below altitude 10° 17:36:09 10° 337° (NNW) 1,925 4.4 -17.7°
Enters shadow 17:40:35 - 20° (NNE) 2,853 4.8 -18.5°
